Regional Weather Roundup
Issued by NWS

Home | Current Version | Previous Version | Text Only | Print | Product List | Glossary Off
Versions: 1 2 3 4 5 6 7 8 9 10 11 12 13 14 15 16 17 18 19 20 21 22 23 24 25 26 27 28 29 30 31 32 33 34 35 36 37 38 39 40 41 42 43 44 45 46 47 48 49 50

000
ASUS43 KTOP 191859
RWRKS

WEATHER ROUNDUP FOR KANSAS
NATIONAL WEATHER SERVICE GOODLAND KS
100 PM CST SUN FEB 19 2017

NOTE:  "FAIR" INDICATES FEW OR NO CLOUDS BELOW 12,000 FEET WITH NO
SIGNIFICANT WEATHER AND/OR OBSTRUCTIONS TO VISIBILITY.

KSZ001>006-013>018-027>032-041>047-192000-
NORTHWEST KANSAS

CITY           SKY/WX    TMP DP  RH WIND       PRES   REMARKS
GOODLAND       CLOUDY    65  38  36 S24G36    29.68F
HAYS           SUNNY     67  50  54 S17       29.78F
HILL CITY      SUNNY     68  48  48 S12G22    29.76F
RUSSELL        SUNNY     65  51  60 SE16G24   29.79F
$$

KSZ061>065-074>080-084>089-192000-
SOUTHWEST KANSAS

CITY           SKY/WX    TMP DP  RH WIND       PRES   REMARKS
DODGE CITY     SUNNY     67  48  50 S18       29.78F
ELKHART          N/A     64  41  43 S20         N/A
GARDEN CITY    SUNNY     69  48  47 S24G32    29.74F
GREAT BEND     SUNNY     64  51  62 S16       29.82F
LIBERAL        SUNNY     70  54  56 S24G31    29.77F
$$

KSZ066>073-081>083-090>101-192000-
SOUTHEAST KANSAS

CITY           SKY/WX    TMP DP  RH WIND       PRES   REMARKS
CHANUTE        CLOUDY    65  55  70 S18       29.95F
COFFEYVILLE    CLOUDY    66  57  72 S16       29.94F
HUTCHINSON     CLOUDY    55  51  86 S15       29.88F
MEDICINE LODGE   N/A     55  53  93 S10       29.85F
NEWTON         CLOUDY    56  52  86 S17       29.89F
PARSONS        PTSUNNY   67  56  67 S16G24    29.95F
WICHITA INTL   CLOUDY    59  54  83 S14       29.89F
WICHITA JABRA  CLOUDY    57  54  89 S13       29.89F
WICHITA MCCONL CLOUDY    57  55  94 S13       29.89F
WINFIELD       CLOUDY    59  56  89 S12       29.91F
$$

KSZ007>012-019>026-033>040-048>060-102>105-192000-
NORTHEAST KANSAS

CITY           SKY/WX    TMP DP  RH WIND       PRES   REMARKS
CONCORDIA      PTSUNNY   60  54  80 S15       29.84F
EMPORIA        CLOUDY    56  54  93 SE15      29.92F FOG
LAWRENCE       CLOUDY    69  55  60 SE14      29.93F
MANHATTAN      CLOUDY    59  52  77 S16       29.89F
OLATHE IND     MOSUNNY   69  53  56 S9        29.94F
OLATHE EXE     MOSUNNY   68  55  63 S13G21    29.93F
SALINA         CLOUDY    58  51  78 S13       29.87F
TOPEKA BILLARD MOSUNNY   66  54  65 S14G21    29.91F
TOPEKA FORBES  PTSUNNY   67  55  65 S16       29.91F
$$




USA.gov is the U.S. government's official web portal to all federal, state and local government web resources and services.